Wind_Speed
50 49 49 49 49 48 48 48 48 49 49 49 48 47 46 45 43 39 36 35 35 36 36 36 37 37 37 37 37 37 36 36 36 37 37 38 38 39 40 41 42 43 44 44 44 45 45 46 47 47 48 49 50 50 50 50 51 51 51 52 53 53 55 57 61 63 62 60 60 60 58 57 57 56 55 55 54 52 53 55 56 57 58 59 60
48 48 48 48 48 48 48 48 48 49 50 49 48 47 46 43 40 37 35 34 35 35 36 36 36 36 37 37 37 37 37 37 37 37 37 37 38 38 39 40 41 42 43 44 45 46 46 47 47 47 47 48 49 50 50 50 51 51 51 52 53 53 54 56 59 62 63 61 60 60 60 59 58 56 56 56 56 54 54 54 55 56 58 59 60
47 48 47 47 47 47 47 48 48 49 49 49 47 46 44 40 37 36 35 35 35 35 35 36 36 36 36 36 36 36 37 37 37 37 37 37 37 38 38 39 40 41 43 44 45 46 47 48 48 47 48 48 48 49 49 50 50 51 51 52 53 53 53 55 57 60 62 62 62 61 61 60 59 57 56 56 57 57 56 54 54 55 56 58 59
47 47 47 47 47 47 47 48 49 49 48 48 46 45 42 38 36 35 34 35 35 35 35 35 36 36 36 36 36 36 36 36 36 36 36 37 37 38 38 39 39 41 42 43 44 46 47 48 49 48 49 49 49 48 48 48 49 50 51 51 52 53 53 53 55 58 60 62 62 62 62 61 60 58 57 56 56 57 57 56 55 55 56 57 59
47 47 46 47 46 47 48 48 48 48 47 46 45 43 40 37 35 34 34 34 35 35 35 35 36 35 35 35 36 36 36 36 36 35 36 36 37 38 38 38 39 40 41 42 43 45 46 48 48 49 49 50 50 48 48 47 48 48 49 50 50 51 52 53 54 56 59 61 62 62 62 62 61 59 58 57 56 56 57 57 57 57 56 57 57
47 47 46 46 47 47 48 48 48 47 46 45 43 41 39 37 35 34 33 34 34 35 35 35 35 35 35 35 35 36 36 35 35 35 35 36 37 37 38 38 39 40 40 42 43 44 46 47 48 48 49 50 50 49 48 47 47 47 48 48 49 50 51 52 53 54 57 59 61 62 62 62 62 60 58 57 57 56 56 57 57 57 57 57 57
46 46 46 46 47 47 48 48 48 46 44 43 42 40 38 37 35 34 33 33 34 34 35 35 35 35 35 35 35 35 35 35 35 35 36 37 37 37 38 38 39 40 40 42 43 44 46 47 48 48 49 49 49 49 48 47 47 47 47 47 47 49 50 50 51 53 55 57 59 61 61 61 61 61 59 57 57 56 56 57 57 56 57 58 58
46 45 46 46 47 47 48 48 47 45 43 42 40 39 37 36 35 34 33 34 34 34 35 35 35 35 35 35 35 36 36 35 35 35 36 37 37 38 39 39 40 40 41 42 43 44 45 46 47 47 48 48 48 48 48 48 48 48 47 46 46 47 48 49 50 51 53 55 57 58 59 60 60 60 58 57 57 56 54 56 58 57 56 57 58
45 45 46 46 47 48 48 47 46 44 42 41 40 38 37 36 35 34 33 34 34 35 35 35 35 35 35 35 36 36 36 35 35 36 37 37 37 38 39 40 41 41 41 42 43 44 44 45 45 45 46 47 47 47 47 47 48 49 48 46 46 46 47 47 49 49 51 53 55 55 56 58 58 58 57 56 56 54 53 54 57 57 57 57 58
45 45 46 46 47 47 47 46 45 43 42 40 39 38 37 36 35 33 33 34 34 34 34 35 35 35 35 36 36 36 36 35 35 36 37 37 38 40 41 41 42 42 43 43 44 44 44 44 43 42 43 44 44 45 46 46 46 47 47 46 45 46 46 46 47 47 49 51 52 53 54 56 56 55 55 55 53 53 53 53 55 56 56 58 58
45 45 45 46 46 47 47 46 44 42 41 40 39 38 37 36 34 33 33 33 34 34 34 34 34 35 36 36 36 36 35 35 35 36 36 37 39 41 42 43 43 44 44 45 45 46 45 45 44 42 41 41 42 42 43 44 44 45 45 45 44 44 45 46 46 46 47 49 50 50 52 54 54 52 52 53 52 53 53 53 54 55 56 57 58
45 45 45 45 46 46 46 45 43 42 41 40 38 37 37 36 34 33 33 34 34 34 34 34 34 35 36 36 36 36 36 35 36 36 36 36 38 40 42 43 45 45 45 45 46 46 46 46 45 43 42 40 40 40 40 41 41 42 43 43 43 42 42 42 43 45 46 47 49 50 51 52 53 51 51 51 51 51 52 52 53 54 54 55 56
45 45 45 45 46 45 44 43 42 41 40 39 38 37 37 36 35 34 34 34 34 35 34 34 35 35 36 36 37 37 36 35 36 36 36 37 38 40 42 44 45 45 45 45 45 46 46 46 45 44 42 40 39 38 38 38 39 40 41 41 41 41 40 39 39 41 43 45 48 51 50 50 51 51 49 49 49 50 51 52 51 51 52 52 53
44 44 44 44 44 43 42 42 41 40 40 39 38 37 37 36 35 34 34 34 34 35 35 35 35 35 36 36 37 37 35 35 36 36 36 37 38 40 42 44 44 44 44 44 45 45 45 45 46 45 43 40 38 37 36 37 37 38 38 39 40 40 40 40 40 40 40 42 45 48 47 46 48 48 46 45 46 47 48 48 47 46 47 47 48
43 44 44 43 42 42 41 40 40 39 39 39 38 38 37 36 35 34 34 34 35 35 35 35 36 36 36 37 38 37 35 35 36 36 36 37 38 40 42 43 43 43 44 44 44 45 45 45 45 44 42 40 37 35 35 36 36 37 37 38 39 39 39 39 39 38 38 38 40 42 43 43 43 44 43 42 42 42 42 43 42 41 41 43 44
42 43 42 41 41 40 40 39 39 38 39 39 38 37 37 36 35 35 35 34 35 35 35 36 36 36 36 37 38 38 36 34 35 36 35 36 38 41 42 42 42 43 44 44 44 44 43 43 43 43 42 40 38 35 34 34 35 35 36 36 36 37 38 37 35 34 35 35 36 37 37 37 37 37 37 36 34 33 32 33 34 34 35 38 41
42 42 41 40 39 39 38 38 38 38 38 38 37 37 36 36 35 35 35 35 35 35 35 36 36 36 37 37 38 38 37 34 34 35 35 35 37 40 41 41 42 43 43 44 44 43 42 41 41 41 41 40 38 34 31 30 31 32 32 33 34 34 36 35 33 32 32 33 34 34 34 33 32 32 32 31 30 28 29 32 32 31 33 36 39
41 40 40 39 38 38 38 37 37 37 37 37 37 36 36 36 35 35 36 35 35 35 36 36 36 36 37 37 38 39 38 35 35 35 35 34 35 38 40 41 42 43 43 43 43 43 41 39 39 40 40 39 36 32 28 26 27 29 30 30 31 33 33 33 33 33 33 33 33 34 35 35 34 34 34 34 33 32 34 38 36 34 37 39 40
40 39 38 38 37 37 37 37 37 36 36 36 36 36 35 35 35 35 36 36 36 36 36 37 36 36 37 38 38 39 38 37 36 36 35 34 34 37 39 41 42 42 43 43 43 43 41 39 38 38 38 37 34 29 25 24 27 29 29 30 32 33 33 33 34 36 36 36 36 37 39 40 40 40 40 40 39 38 40 42 40 38 40 42 41
39 38 37 37 36 37 37 36 36 36 36 36 36 35 35 35 35 35 35 36 36 36 36 37 37 37 37 38 38 38 39 38 37 36 35 33 33 36 39 40 41 42 43 43 44 44 42 40 38 35 34 33 31 28 25 25 26 27 28 31 33 33 33 35 37 38 39 40 40 39 39 41 43 44 45 44 44 44 44 45 45 43 43 44 43
38 37 36 36 36 36 36 36 36 35 35 36 35 35 34 34 35 35 36 36 36 37 37 37 38 38 37 38 38 38 39 39 38 36 35 33 33 35 37 39 40 42 43 44 45 45 44 40 36 33 31 30 28 26 25 25 25 26 29 32 32 31 34 38 39 39 39 40 41 41 40 40 42 45 47 48 48 47 48 48 48 47 47 47 46
37 36 36 36 36 36 36 35 35 35 35 35 35 34 34 34 34 35 35 36 36 36 37 37 38 38 37 37 38 38 39 40 38 36 35 33 32 34 36 37 38 40 43 44 45 45 43 39 34 31 30 29 27 26 25 25 26 30 32 31 29 31 35 39 39 39 41 42 43 43 43 43 43 44 46 48 50 50 51 51 50 50 49 48 47
37 36 36 36 36 36 35 35 35 34 34 34 34 34 33 33 34 34 35 36 36 36 36 37 38 38 38 37 37 38 39 39 38 36 34 33 32 33 34 36 36 38 41 44 44 44 42 38 34 31 30 29 27 26 25 26 29 32 32 31 33 36 39 41 42 44 45 45 46 46 46 46 46 45 45 46 47 49 51 53 53 52 52 51 49
36 35 35 35 35 35 35 34 34 34 33 34 34 33 33 33 33 33 34 36 36 36 36 37 38 38 38 37 37 38 39 38 36 35 34 33 33 32 33 34 35 37 40 41 41 41 40 37 33 31 30 29 29 28 28 30 33 34 34 36 39 41 43 45 46 47 48 49 49 49 48 47 48 48 47 46 46 47 49 51 52 52 52 52 52
36 35 35 35 35 35 35 34 33 33 33 33 33 33 33 33 33 33 34 35 35 36 36 36 37 38 38 37 37 38 39 37 35 34 33 33 33 33 33 33 34 35 37 38 38 38 38 35 33 32 33 33 34 34 33 33 34 35 36 38 40 41 43 44 45 46 47 47 48 48 48 48 49 49 49 49 48 47 46 47 48 48 48 49 50
36 35 35 35 35 35 35 34 33 33 32 32 33 33 33 33 33 32 33 34 34 35 35 35 36 36 37 37 38 39 38 36 35 33 33 33 34 34 33 33 33 34 35 35 35 36 36 35 35 35 35 36 37 37 35 34 33 34 36 38 39 41 42 42 43 43 43 42 43 44 45 46 47 48 49 49 49 48 47 46 45 43 42 43 46
35 35 35 35 35 35 35 35 33 33 32 31 32 32 32 33 33 32 32 33 33 34 34 35 35 36 37 38 39 39 38 36 34 33 33 33 34 34 33 32 31 32 32 33 34 35 35 35 36 36 35 35 36 36 34 33 34 35 36 37 39 40 41 41 41 41 39 39 38 38 38 39 41 42 44 46 47 47 46 46 45 42 40 40 42
35 35 35 35 35 36 36 35 34 33 32 31 31 31 32 32 32 31 31 32 33 33 34 34 34 35 37 39 40 40 39 37 35 33 33 34 34 34 33 30 29 31 32 32 32 32 32 32 33 33 33 32 32 32 32 32 33 34 35 36 37 38 39 40 40 39 39 38 36 35 34 34 35 36 39 41 42 42 42 43 43 41 39 38 40
35 35 35 36 36 36 36 35 34 33 32 31 31 31 31 32 32 30 29 31 32 33 34 34 34 36 38 39 40 41 40 39 37 37 36 36 36 36 34 31 30 32 33 33 32 31 30 29 29 28 28 28 29 29 30 31 32 32 32 33 34 35 36 37 38 38 38 37 36 34 33 31 31 33 35 36 36 36 36 37 39 39 39 38 39
35 35 36 36 36 36 35 34 34 34 33 32 31 30 29 30 31 31 30 29 30 32 33 34 35 37 39 40 41 42 42 42 41 40 39 39 40 39 37 34 33 35 36 35 34 33 32 31 29 28 28 28 28 28 29 29 29 30 30 30 31 32 33 34 36 36 36 35 33 32 31 29 29 28 29 30 30 30 31 32 34 37 38 38 39
35 35 36 36 36 37 36 34 34 33 33 33 33 31 29 28 28 30 31 31 30 30 32 33 34 35 37 39 40 41 42 42 41 41 40 41 40 40 38 37 36 36 36 34 33 32 32 32 31 31 30 30 29 28 28 28 28 28 28 28 29 30 30 32 32 32 32 31 30 29 27 26 24 23 23 24 24 25 28 30 33 35 37 38 39
36 36 36 36 37 37 36 35 34 34 34 34 34 33 32 29 26 26 28 30 31 30 31 32 33 34 35 37 38 39 40 40 41 40 40 39 39 40 40 39 38 36 35 33 32 33 33 32 32 32 31 30 29 28 27 27 27 27 27 27 27 27 29 30 30 29 29 28 27 25 24 22 21 21 20 21 22 23 25 28 31 34 36 38 39
36 37 37 37 37 37 36 36 35 34 35 34 34 34 34 33 31 28 26 27 28 30 31 32 33 34 34 35 36 37 38 39 40 40 39 38 39 42 44 42 39 37 36 34 33 33 33 32 32 31 31 30 29 28 27 27 27 27 27 26 26 26 27 28 28 28 27 27 25 24 22 21 21 21 20 20 20 22 23 25 28 31 34 36 38
37 37 38 38 38 37 37 36 35 35 35 35 35 35 34 34 35 33 31 29 28 28 29 30 33 34 35 35 35 36 36 37 37 38 37 36 39 43 45 43 39 38 37 36 35 34 33 32 32 31 30 30 29 28 27 26 26 26 26 26 26 26 26 26 27 26 26 25 24 23 22 22 21 21 20 19 20 21 23 24 26 29 32 34 35
37 38 38 39 39 38 37 36 36 36 36 35 35 35 35 35 35 35 35 35 33 31 29 29 31 33 34 35 36 36 35 35 35 34 34 35 39 43 44 42 39 38 37 36 36 35 34 33 31 31 30 30 29 28 27 26 26 26 25 25 25 24 24 25 25 26 25 25 24 24 23 23 22 21 20 19 19 20 22 22 24 27 30 31 32
37 38 38 39 39 38 37 36 36 36 36 36 36 35 35 35 35 36 36 36 36 36 34 33 33 33 34 35 37 37 36 35 34 33 32 34 38 41 42 40 39 37 35 35 35 35 34 34 32 31 30 29 29 28 27 27 26 25 25 24 24 23 23 23 24 25 24 24 25 25 24 23 22 22 20 19 17 18 20 21 24 26 28 28 28
38 38 38 39 38 38 37 36 36 36 36 36 36 36 35 35 36 37 37 37 37 37 37 36 36 36 36 36 37 38 37 35 34 34 33 34 37 39 40 40 39 38 35 34 33 33 33 33 32 31 30 29 29 28 27 27 26 25 24 23 23 22 22 22 23 24 24 24 25 26 25 24 23 22 20 18 17 17 18 20 24 26 26 26 25
38 38 39 38 38 38 36 36 36 36 37 37 36 36 36 36 36 37 37 37 37 37 37 37 38 38 38 38 39 39 38 36 35 34 34 33 35 37 39 40 40 38 37 35 34 33 32 31 32 31 30 29 28 28 27 26 26 25 23 22 22 21 21 21 22 23 23 24 25 26 26 25 24 22 20 18 17 16 17 20 25 27 26 24 24
38 38 38 38 38 37 37 36 36 36 36 36 36 37 37 37 37 37 37 37 37 37 38 38 38 38 39 40 40 40 40 39 37 35 34 33 34 35 36 38 38 38 37 36 35 34 33 32 31 31 30 29 28 27 27 26 25 24 23 22 21 21 20 21 21 22 23 24 25 26 26 25 24 22 21 19 17 15 16 19 25 28 26 24 24
38 38 38 38 37 37 37 37 37 37 37 36 36 37 37 37 37 36 36 37 37 37 38 38 38 39 40 40 41 41 42 41 40 38 37 35 33 33 34 35 36 37 37 36 35 34 34 33 32 31 30 29 28 27 27 26 25 24 23 22 21 20 20 20 21 21 22 23 25 26 26 26 24 22 21 19 17 14 14 18 25 29 28 25 24
38 38 38 37 37 36 36 36 37 37 37 36 36 37 36 36 36 36 36 36 37 37 38 39 39 39 40 40 40 41 42 42 42 41 40 38 36 34 33 33 34 35 35 35 35 34 33 33 32 31 30 29 28 27 27 26 25 24 23 22 21 20 20 20 20 21 22 23 25 26 26 26 24 22 20 19 16 14 13 16 23 29 29 27 25
38 38 37 37 36 36 36 36 36 36 36 36 36 36 36 36 36 36 36 36 37 38 39 40 40 40 40 39 40 40 41 42 42 42 41 40 37 35 33 33 34 35 35 35 34 34 33 33 32 31 30 29 29 28 27 26 26 25 24 22 21 20 20 20 20 21 22 23 24 25 26 25 24 22 20 18 16 13 12 14 21 27 30 28 27
38 38 37 36 36 37 36 36 36 36 35 36 35 35 35 35 35 35 36 37 38 40 41 41 41 41 40 40 40 40 40 41 41 41 41 39 38 36 34 33 34 34 35 35 35 34 34 33 32 31 30 29 29 28 27 26 26 25 24 22 21 20 20 20 20 21 22 23 24 24 25 25 24 22 20 18 16 14 12 13 18 25 30 30 29
38 37 37 36 37 36 36 36 36 35 35 35 34 34 34 34 35 35 37 38 39 41 42 42 42 41 41 40 41 41 41 41 40 40 39 38 37 35 34 34 34 34 35 35 35 35 34 33 32 31 30 29 29 28 27 26 26 25 24 23 21 20 20 20 20 21 22 23 23 23 24 25 24 22 20 18 16 14 13 12 15 22 28 32 32
37 37 37 37 36 36 36 36 36 36 35 34 34 33 33 34 35 36 37 39 40 41 41 42 42 42 42 41 42 42 41 41 41 40 38 37 36 35 34 34 34 35 35 35 35 35 35 33 32 31 30 29 28 28 27 26 26 25 24 23 21 20 20 20 20 21 22 22 23 23 24 24 24 22 20 19 17 15 13 12 14 18 24 29 32
37 37 37 37 36 36 36 36 35 35 35 34 34 33 33 34 36 37 38 40 41 41 42 42 42 42 42 42 42 42 41 41 40 39 38 37 36 35 35 35 35 35 35 35 35 35 34 33 31 30 29 28 28 28 27 26 25 25 24 23 21 21 20 20 20 20 21 22 22 22 23 24 24 23 21 19 17 16 14 13 13 15 20 25 29
37 37 37 37 36 36 36 35 35 34 34 34 34 34 35 36 37 38 39 40 41 41 42 42 42 42 42 42 41 41 41 41 40 39 38 37 36 36 36 36 36 35 35 35 35 34 33 32 30 29 28 28 27 27 27 26 25 24 23 23 22 21 20 20 20 20 21 21 22 22 23 24 24 23 21 19 18 16 14 13 13 14 18 22 26
37 37 36 36 36 36 35 35 34 34 34 34 34 35 36 37 38 39 40 41 41 42 42 42 42 42 42 42 41 41 41 40 39 39 38 38 37 37 36 36 36 35 34 33 33 32 31 30 29 28 27 26 26 26 26 26 25 24 23 22 21 21 20 20 20 20 20 21 21 22 23 24 23 23 21 20 18 17 15 13 12 14 16 20 23
37 36 36 36 35 35 35 34 34 34 35 35 36 36 37 38 39 40 40 41 41 42 43 43 43 43 42 42 42 41 40 40 39 39 39 39 38 38 37 36 35 34 33 31 30 29 28 27 27 26 26 25 25 25 25 25 24 24 23 22 21 21 20 20 20 20 20 21 21 22 23 23 23 23 22 20 18 17 15 13 12 13 15 18 20
36 36 36 35 35 34 34 34 35 35 36 37 37 38 39 39 40 40 41 41 42 42 43 43 43 43 43 43 42 41 41 40 40 40 40 39 38 38 36 35 33 32 30 28 27 26 26 26 25 24 24 24 24 24 24 24 24 23 22 22 21 20 19 19 19 19 20 20 21 22 22 22 22 22 22 21 19 18 16 14 12 13 15 17 19
36 36 35 35 34 34 34 34 35 36 37 38 39 39 40 40 41 41 42 42 43 43 43 43 43 43 43 43 42 41 41 41 40 40 40 39 38 36 35 33 31 29 27 26 25 24 24 24 23 22 22 22 23 23 23 23 23 23 23 22 21 20 19 19 19 19 19 20 21 21 22 21 22 22 22 21 20 19 17 15 13 13 15 18 19
Wind_Direction
308 308 308 308 308 307 306 306 305 305 304 303 303 302 301 299 296 294 292 292 293 293 294 294 293 293 293 293 292 292 291 290 289 288 287 286 286 285 285 285 285 284 284 283 282 280 278 276 275 274 273 272 271 270 270 269 268 267 267 266 265 265 264 265 265 263 262 264 264 262 261 259 257 256 256 255 254 253 252 252 252 252 253 253 253
307 308 307 306 306 305 305 305 304 303 303 302 302 301 299 297 294 292 292 293 293 293 294 294 294 294 293 293 293 293 292 292 291 290 289 288 288 287 286 285 285 284 284 283 282 282 280 278 277 275 274 272 271 271 270 269 269 268 267 267 265 265 265 264 265 263 262 263 263 263 263 261 259 258 257 256 254 254 253 252 252 252 252 252 252
307 307 306 304 304 304 304 303 302 302 302 302 301 299 297 294 291 291 292 293 293 293 294 294 294 295 295 295 295 294 294 293 292 292 291 290 289 288 288 287 286 285 284 282 281 281 280 279 278 277 276 274 272 271 270 269 269 268 267 267 266 265 265 264 264 264 262 263 263 262 262 262 260 259 258 257 256 255 253 252 251 251 252 253 252
306 305 304 303 303 303 303 303 302 301 301 300 299 297 295 291 289 290 291 292 293 293 294 294 294 295 296 296 296 295 295 294 294 293 292 291 290 290 289 289 288 287 285 284 282 280 279 277 277 276 275 274 273 271 271 269 269 268 267 266 266 265 265 264 264 263 263 262 262 262 262 262 261 260 259 258 257 256 255 253 251 250 250 251 252
304 304 304 303 303 303 303 302 301 301 300 299 298 296 293 290 289 290 290 290 292 293 294 294 294 295 295 296 296 295 295 295 295 294 293 292 291 291 290 290 289 289 288 287 285 282 280 277 276 275 274 274 273 272 271 270 269 268 267 267 266 265 264 264 263 263 263 262 261 262 262 262 261 260 259 258 257 257 256 256 254 252 250 249 250
303 304 304 303 303 303 302 301 301 300 300 298 297 294 291 289 288 289 289 290 291 292 293 293 294 295 295 295 295 295 296 296 296 296 295 293 293 292 292 291 290 290 290 290 288 286 284 281 278 276 275 274 273 272 272 270 269 268 268 267 266 266 265 264 263 263 262 261 261 261 262 262 262 260 259 259 258 257 256 256 255 254 252 250 249
304 304 303 302 302 302 301 301 301 301 300 298 296 293 289 288 288 289 290 291 291 291 292 292 293 294 295 295 295 296 296 297 297 296 295 295 294 294 293 291 290 291 291 290 290 288 287 284 281 278 276 274 273 272 272 271 270 268 268 267 266 266 265 264 264 263 262 261 260 261 261 262 262 261 260 260 259 257 257 257 256 255 254 253 250
304 303 303 302 302 302 301 302 302 302 300 299 296 292 289 288 289 290 291 291 291 291 291 292 293 294 294 295 295 296 296 296 296 296 296 296 296 295 294 292 291 291 291 291 291 291 290 288 284 281 278 276 274 273 272 271 270 268 268 267 267 267 266 265 264 263 262 262 260 260 260 261 261 261 260 260 259 258 258 257 256 254 254 254 252
304 304 303 303 303 302 303 303 303 303 301 299 296 292 289 288 289 290 290 290 290 290 291 292 293 294 294 294 295 295 296 296 296 296 296 296 296 294 293 293 292 292 291 291 291 292 292 290 287 283 279 277 274 273 272 271 270 269 268 267 267 267 267 267 266 265 263 262 261 260 260 260 260 261 260 260 260 259 258 258 257 255 254 253 252
305 304 304 304 304 303 304 304 304 304 301 299 295 291 289 288 288 289 289 289 290 290 291 292 293 293 293 293 294 295 295 296 296 295 296 296 296 295 294 294 294 293 292 293 294 295 296 294 291 286 281 277 274 272 270 269 268 267 267 267 266 267 267 267 267 267 267 265 263 261 261 259 259 260 260 260 260 259 258 257 256 255 255 254 252
305 305 305 305 305 304 305 306 305 304 301 299 295 291 289 288 288 289 289 289 290 290 291 291 291 292 293 293 294 295 295 296 295 295 296 296 296 296 296 296 295 295 295 297 298 300 300 299 296 291 286 282 278 275 272 270 268 267 266 265 265 265 266 267 267 266 265 266 264 263 262 260 258 258 259 258 259 258 257 256 255 254 255 255 254
306 306 306 306 306 306 307 307 305 303 301 298 295 292 290 290 290 290 290 290 290 290 290 290 291 291 292 293 294 295 296 296 296 296 297 296 294 294 295 294 295 296 297 298 299 301 301 300 298 293 289 285 282 279 276 273 271 269 266 265 264 264 266 267 268 267 265 264 263 261 260 260 259 257 256 256 256 257 256 256 255 254 254 255 255
307 307 307 306 307 307 307 306 304 302 301 298 295 293 291 291 291 290 290 290 290 291 291 291 291 292 292 294 295 296 297 298 297 297 297 295 293 293 293 293 294 296 297 298 299 300 300 299 297 293 290 287 284 282 278 275 271 269 266 265 264 263 263 263 264 265 266 265 264 262 260 260 260 258 257 257 257 256 256 256 256 256 255 254 255
308 308 307 307 308 308 306 305 304 302 301 298 296 294 292 291 291 290 290 290 290 291 292 292 292 293 293 294 295 296 298 298 297 297 295 294 292 292 291 292 293 295 296 297 298 299 299 297 295 293 290 287 285 282 278 275 272 269 267 265 263 262 261 260 260 260 262 264 266 266 265 264 263 261 259 259 259 258 258 258 257 258 257 255 254
308 307 308 309 308 307 306 305 304 302 301 298 296 294 292 291 291 290 290 291 291 292 292 292 293 293 294 295 296 296 297 297 296 295 294 293 292 291 291 292 293 294 295 296 297 298 297 296 294 293 290 287 284 281 278 275 273 270 267 264 262 261 261 260 260 260 261 262 264 266 266 266 265 264 261 261 260 259 259 259 259 258 256 254 252
308 308 310 310 309 308 307 306 304 302 300 299 297 295 293 292 292 291 291 291 292 292 292 292 293 294 294 295 296 296 297 296 295 295 294 293 292 291 292 293 293 293 294 295 296 296 296 295 293 291 288 286 283 280 278 276 274 272 270 267 265 264 262 261 260 260 261 261 261 263 265 265 266 266 265 265 265 263 262 260 256 254 254 251 249
309 310 311 311 310 309 308 306 304 303 301 300 298 296 294 293 292 292 291 291 291 292 292 292 293 294 295 295 295 296 297 297 296 295 294 293 292 291 292 292 292 292 294 295 296 296 296 295 292 288 286 284 283 282 279 277 275 275 274 273 271 269 267 265 262 259 257 257 258 260 262 261 261 261 261 262 263 264 264 261 256 255 257 255 250
311 312 312 312 311 309 307 306 305 304 302 301 300 298 296 294 293 292 291 291 291 291 292 292 293 294 295 295 295 297 298 299 297 296 295 294 292 292 292 291 291 293 294 295 296 296 296 294 290 287 286 285 285 284 279 275 273 272 272 272 271 270 269 268 266 261 255 250 248 249 249 248 247 246 245 244 243 246 253 256 255 257 259 258 254
313 314 313 312 311 309 308 307 306 305 304 303 302 300 298 296 295 293 292 291 291 291 292 292 293 294 295 295 296 298 299 299 298 297 297 296 294 292 291 292 293 294 295 296 296 296 296 294 291 288 287 287 286 282 276 269 267 268 270 270 269 267 266 265 265 263 259 254 247 243 240 238 238 237 237 236 233 233 239 244 246 248 252 254 254
315 315 314 312 311 310 309 308 308 307 306 305 304 302 301 299 297 295 293 292 292 292 292 292 293 294 295 296 297 298 299 299 299 298 298 297 295 292 292 293 294 295 295 296 296 296 296 298 298 294 289 285 283 280 274 269 270 272 271 268 267 268 268 265 262 260 259 258 255 250 245 240 238 236 236 235 233 232 234 238 240 243 247 249 250
316 315 314 312 312 311 311 309 309 308 306 306 305 305 304 302 299 297 295 294 293 292 292 293 293 294 295 296 298 299 299 299 299 300 299 297 295 292 292 293 295 295 296 296 295 296 298 302 302 297 290 284 282 279 275 272 273 270 264 262 265 268 267 264 262 260 259 258 258 257 253 248 242 239 237 237 236 234 234 235 238 241 245 248 249
316 315 314 313 313 313 312 310 309 308 307 307 307 307 307 305 302 300 297 295 294 293 293 293 293 294 295 296 298 299 298 298 300 300 298 296 294 292 292 292 293 294 294 294 294 296 300 302 301 295 290 286 282 277 273 272 268 262 260 261 264 263 261 260 260 259 257 256 255 255 254 252 248 243 239 238 237 236 236 236 237 240 243 247 249
316 315 315 315 315 314 312 311 310 309 308 308 308 308 308 306 304 302 299 297 296 295 294 294 294 295 296 297 298 297 296 297 299 299 297 295 293 291 290 291 291 291 290 292 295 297 299 299 297 292 287 283 279 273 270 267 263 259 258 257 255 253 253 255 255 255 255 254 254 253 253 252 251 249 246 242 240 238 238 238 238 239 241 243 246
316 316 316 316 315 314 313 312 310 309 309 308 308 309 308 307 306 305 303 301 299 298 297 296 296 296 297 297 296 295 294 296 298 298 296 294 292 290 289 289 289 288 289 291 294 296 296 295 292 287 280 276 272 268 263 258 257 257 257 256 255 254 254 254 255 256 257 258 258 258 257 256 255 254 252 250 246 243 241 239 239 240 241 242 243
316 317 317 317 316 315 314 312 310 310 309 308 309 309 309 309 308 307 306 304 302 301 300 299 298 298 297 297 295 293 294 296 298 298 296 294 292 290 289 288 289 289 289 291 293 293 293 290 284 278 274 272 270 270 267 264 262 262 262 262 262 262 261 260 260 261 261 261 262 262 261 260 258 257 256 255 253 250 246 244 242 242 242 243 243
316 317 317 317 316 315 314 313 311 310 310 309 310 310 310 310 310 309 308 306 304 303 302 301 300 299 298 297 295 295 297 299 300 300 297 293 291 290 289 289 289 289 290 290 291 290 289 285 280 277 274 273 273 274 274 273 270 267 266 266 266 266 265 265 265 265 265 264 263 262 262 260 259 258 258 258 257 255 252 249 246 244 243 243 243
317 318 318 317 317 316 315 314 313 312 311 310 310 310 310 310 310 310 309 307 306 305 304 303 302 301 300 299 298 299 300 301 301 299 295 291 289 288 288 290 291 290 288 288 287 287 287 285 281 277 274 273 274 275 274 272 269 267 267 267 267 268 268 268 269 269 269 268 265 263 262 261 260 259 258 257 256 255 254 252 249 245 242 242 243
318 319 318 318 317 317 316 315 314 313 311 310 310 310 310 310 310 311 310 308 308 307 306 305 305 303 302 300 300 301 302 302 301 298 295 292 290 289 289 291 290 288 285 284 283 283 284 283 280 274 270 268 268 267 266 265 264 265 266 265 265 265 266 267 269 270 271 271 270 268 266 263 260 258 256 256 256 255 255 254 250 245 241 241 243
318 319 319 318 318 317 317 316 314 313 311 310 309 309 310 310 310 311 310 310 310 310 308 308 307 306 304 304 305 305 306 306 306 303 301 299 297 295 296 297 294 291 290 290 291 291 292 290 285 278 271 266 262 260 260 261 263 265 266 265 264 263 263 265 266 268 269 271 271 270 268 263 258 255 253 254 255 255 254 253 249 243 240 241 242
319 319 319 319 318 318 318 316 314 313 312 310 309 309 310 311 311 311 312 312 313 313 313 313 313 312 311 311 311 312 311 311 310 308 306 303 301 301 303 302 299 296 296 297 298 299 299 296 290 283 276 270 266 264 263 263 265 266 267 267 265 264 263 264 265 266 267 268 267 267 264 260 254 251 249 250 251 250 250 249 246 241 240 241 243
319 319 319 319 319 318 318 316 315 314 312 311 310 309 309 310 310 311 312 314 316 316 315 315 314 313 313 312 313 312 311 310 308 306 303 301 301 301 300 297 294 293 294 297 298 297 295 292 289 285 279 274 271 268 267 267 267 268 269 268 266 265 264 264 265 265 265 265 264 262 259 254 248 244 243 245 246 246 246 246 243 241 240 241 243
319 320 320 319 319 319 318 317 316 315 314 312 311 309 309 309 308 308 309 312 314 315 314 313 312 311 311 311 311 310 309 307 305 303 301 300 299 297 293 291 291 293 295 296 295 292 290 289 288 285 280 276 273 270 269 269 269 270 271 269 267 266 265 266 266 265 264 263 261 257 253 249 245 243 243 246 249 249 248 245 243 241 240 240 241
319 320 320 320 320 320 319 318 317 316 315 314 312 310 309 309 308 307 306 306 309 311 311 310 310 310 310 309 309 308 308 306 305 304 303 301 298 293 291 292 295 296 296 295 292 289 288 287 286 285 281 276 272 270 269 269 269 271 272 271 268 265 265 266 266 264 262 261 257 252 249 248 247 246 247 252 257 258 256 251 244 239 236 235 235
319 320 320 320 320 320 320 319 317 316 316 314 313 311 309 309 309 309 308 306 306 306 307 308 308 308 309 308 307 307 307 306 305 304 302 298 292 289 290 294 296 296 295 293 291 289 288 287 286 285 281 277 273 271 270 269 269 270 271 270 267 265 263 264 264 262 260 258 253 248 247 248 249 249 251 256 260 263 263 257 245 234 230 229 229
320 320 320 320 320 321 320 319 318 317 316 315 313 312 310 309 309 309 309 309 308 307 307 307 307 308 308 308 307 307 307 307 306 303 298 291 286 286 288 291 292 291 290 290 289 289 288 287 285 283 280 277 273 271 270 269 269 269 269 267 265 263 262 262 261 259 257 254 249 246 246 248 249 251 253 257 260 263 263 256 241 228 223 223 224
320 320 320 320 320 320 320 319 318 317 316 315 314 313 311 310 309 308 308 308 309 310 310 310 310 310 309 308 307 307 308 308 308 305 299 290 286 286 287 288 288 288 287 286 286 286 286 286 285 283 280 277 273 270 269 268 267 267 267 265 263 261 261 260 259 257 254 250 245 243 245 247 249 251 254 258 262 265 262 250 234 224 220 221 224
320 320 321 320 320 320 319 318 317 317 316 316 315 314 313 311 309 308 308 308 309 310 311 311 311 311 310 309 307 307 307 308 308 307 303 295 290 288 288 288 288 288 288 286 285 284 283 283 282 281 279 276 273 269 267 266 265 265 264 264 262 260 259 258 256 254 251 247 242 241 242 245 248 252 256 260 264 267 262 244 227 221 221 223 226
320 321 321 320 320 319 319 318 317 317 317 317 316 315 314 312 310 309 308 308 309 309 310 311 312 312 311 310 309 308 308 308 309 308 305 300 293 289 287 287 288 289 290 289 288 286 284 282 281 280 277 275 272 268 265 264 263 263 263 262 261 260 258 256 253 251 248 244 240 238 240 243 247 251 257 261 264 267 260 240 224 219 222 226 229
321 321 321 320 320 319 319 318 318 318 318 318 317 316 314 313 311 310 309 309 309 310 311 312 312 312 312 311 310 309 309 309 310 309 307 303 297 290 286 285 286 287 289 290 290 289 286 283 281 279 276 274 271 268 265 263 262 262 262 261 260 259 258 255 252 248 245 242 238 236 237 241 245 250 256 261 264 265 257 237 222 219 222 226 229
321 321 320 320 319 319 319 319 319 319 319 318 317 315 314 313 312 311 311 311 311 311 312 312 313 313 312 312 311 310 310 311 311 310 309 306 301 294 287 284 283 284 286 287 288 288 287 284 281 278 276 273 270 268 265 263 261 261 261 260 258 256 256 254 251 246 242 240 237 234 235 239 243 248 254 259 261 261 254 236 221 217 219 223 228
322 321 321 320 320 319 320 320 320 319 319 318 317 316 315 314 314 314 313 313 313 313 313 314 314 314 313 312 312 311 311 312 312 312 311 309 305 299 292 286 284 283 283 285 286 287 286 283 280 277 275 272 269 267 264 262 261 260 259 258 256 254 253 252 250 245 241 238 235 233 233 236 240 244 250 255 257 258 252 234 220 215 217 220 224
322 321 321 321 320 320 321 320 320 320 319 318 317 317 316 316 316 315 315 315 315 314 315 315 315 314 314 313 312 311 311 312 312 311 310 308 305 301 296 290 286 285 285 285 286 286 285 283 279 275 272 270 267 265 263 260 259 259 257 256 254 251 250 250 247 243 239 237 234 232 231 233 237 241 246 251 254 254 249 234 220 214 215 218 221
322 322 322 322 321 322 321 321 321 320 319 318 318 318 318 318 317 317 317 316 316 316 316 316 315 315 315 314 313 312 312 311 310 309 308 306 304 301 296 292 288 287 286 286 287 286 285 283 279 274 270 267 264 263 260 258 257 256 255 253 251 249 248 247 245 242 239 236 233 231 229 230 233 237 242 247 250 249 245 234 221 215 215 217 220
322 322 322 323 323 323 322 322 321 321 320 320 320 320 319 319 319 318 318 317 317 316 316 316 316 316 316 315 314 313 312 311 310 309 307 305 302 299 296 293 290 288 287 287 287 286 285 283 279 274 269 265 262 260 258 255 254 253 252 251 248 246 245 245 243 240 237 234 232 230 228 228 230 233 238 243 246 246 242 234 223 217 216 217 220
323 323 323 324 324 323 323 323 322 322 322 322 322 322 321 320 320 319 318 318 317 317 317 317 317 317 317 316 315 314 313 312 310 309 307 304 302 299 296 293 291 289 288 287 286 285 284 282 278 273 267 263 259 257 255 253 251 250 249 248 245 243 243 242 240 238 235 233 231 228 226 226 227 229 233 238 242 242 240 235 226 219 217 218 221
324 324 324 324 325 324 324 324 324 324 324 323 324 324 323 321 321 320 319 319 319 319 319 319 318 318 317 317 316 315 314 312 311 309 307 305 302 300 297 295 292 291 289 288 287 285 283 281 276 271 265 260 257 255 253 250 248 247 246 244 242 240 240 240 239 236 233 231 229 226 224 224 225 226 228 233 237 238 238 234 227 221 218 218 221
325 326 325 325 325 325 325 326 325 325 325 325 325 325 324 323 322 321 321 320 320 320 320 319 319 318 318 317 316 315 314 312 311 309 307 305 303 301 298 296 294 292 290 289 287 285 282 278 274 268 263 258 254 251 249 247 245 243 242 241 238 236 236 236 237 235 232 229 226 223 222 222 223 223 224 228 232 234 234 231 226 221 216 214 217
327 327 327 327 327 327 327 327 327 326 327 327 326 326 325 324 324 323 322 322 322 321 320 320 319 319 319 318 317 316 315 313 311 310 308 306 304 302 300 298 296 294 292 290 287 284 280 275 271 265 260 255 250 248 246 244 242 240 238 237 235 232 232 232 233 232 229 226 223 221 220 221 221 220 221 223 227 230 230 227 224 220 213 209 209
328 328 328 328 328 328 328 328 328 328 328 328 327 327 326 326 325 324 323 323 323 322 321 321 321 321 321 320 319 318 316 314 312 310 308 307 305 303 302 300 298 296 294 291 287 283 278 273 268 263 257 252 247 244 242 241 238 236 235 233 231 229 228 229 230 229 227 223 220 219 219 220 219 218 217 219 222 225 226 222 218 212 205 199 198
329 329 329 329 329 329 329 329 329 329 329 328 328 328 327 327 326 325 325 324 324 323 323 322 322 322 322 321 320 318 317 315 313 311 310 308 307 305 304 302 300 298 295 291 286 281 276 271 266 260 255 250 244 240 238 237 234 232 231 230 228 226 224 225 227 226 223 220 218 217 217 218 217 215 214 215 218 221 221 217 210 202 194 190 190
331 330 330 330 330 329 329 329 329 329 329 329 329 329 329 328 327 327 326 326 325 324 324 324 324 324 323 322 321 319 318 316 314 312 311 310 308 307 306 304 302 299 295 290 285 280 274 270 264 258 252 247 241 237 234 232 229 228 227 227 225 223 222 222 223 223 220 218 217 216 216 216 214 212 210 211 214 217 216 212 203 193 189 190 193
Height
2971 2967 2963 2960 2957 2954 2951 2948 2944 2941 2938 2936 2933 2930 2927 2925 2922 2920 2918 2916 2913 2911 2910 2908 2906 2904 2902 2900 2899 2897 2896 2894 2893 2891 2890 2888 2887 2885 2884 2883 2881 2880 2879 2878 2877 2876 2875 2874 2874 2874 2872 2871 2872 2871 2871 2871 2870 2870 2870 2869 2870 2869 2868 2866 2863 2864 2867 2868 2870 2872 2874 2877 2879 2882 2884 2885 2888 2890 2891 2892 2893 2894 2895 2896 2897
2965 2961 2958 2955 2952 2949 2945 2942 2939 2935 2932 2930 2927 2924 2921 2919 2916 2914 2912 2910 2908 2906 2904 2902 2900 2899 2897 2895 2894 2892 2890 2889 2887 2885 2884 2883 2881 2880 2878 2877 2875 2874 2873 2872 2870 2869 2868 2867 2867 2866 2865 2864 2864 2864 2863 2863 2862 2862 2862 2861 2862 2862 2861 2859 2858 2858 2859 2860 2862 2863 2864 2866 2870 2873 2875 2876 2879 2881 2883 2885 2886 2886 2887 2889 2890
2959 2956 2952 2949 2946 2943 2940 2937 2933 2930 2927 2923 2921 2918 2915 2913 2911 2909 2907 2905 2903 2901 2899 2897 2895 2893 2892 2890 2888 2886 2885 2883 2881 2880 2878 2877 2875 2874 2872 2871 2869 2868 2867 2865 2864 2862 2861 2860 2859 2858 2857 2857 2857 2856 2856 2855 2854 2854 2855 2854 2853 2854 2854 2852 2851 2851 2851 2852 2853 2854 2855 2856 2860 2864 2865 2868 2870 2871 2874 2877 2878 2879 2880 2881 2882
2953 2950 2947 2944 2940 2937 2934 2930 2927 2924 2921 2918 2915 2912 2909 2908 2906 2903 2901 2899 2897 2896 2894 2892 2890 2888 2886 2885 2883 2881 2879 2877 2876 2874 2873 2871 2869 2868 2866 2865 2863 2861 2860 2858 2857 2855 2854 2853 2852 2851 2850 2849 2849 2849 2848 2848 2847 2846 2846 2846 2846 2846 2846 2845 2844 2844 2844 2844 2845 2846 2846 2847 2851 2854 2856 2859 2861 2861 2863 2867 2869 2871 2873 2873 2874
2947 2944 2941 2937 2934 2931 2927 2924 2921 2918 2915 2912 2909 2906 2904 2902 2900 2898 2896 2894 2892 2891 2888 2887 2885 2883 2881 2880 2878 2876 2874 2872 2870 2869 2867 2865 2863 2862 2860 2858 2857 2855 2853 2852 2850 2848 2847 2846 2845 2844 2842 2842 2842 2841 2841 2840 2840 2839 2839 2839 2838 2838 2837 2837 2837 2837 2837 2837 2838 2838 2838 2838 2841 2845 2848 2850 2852 2853 2854 2856 2858 2861 2865 2866 2867
2941 2938 2935 2931 2928 2925 2922 2918 2915 2912 2909 2906 2903 2900 2898 2896 2894 2893 2891 2889 2887 2885 2883 2881 2880 2878 2876 2874 2872 2871 2869 2867 2865 2863 2861 2859 2858 2856 2854 2852 2850 2848 2847 2845 2843 2841 2839 2838 2837 2836 2835 2835 2834 2834 2833 2833 2832 2832 2831 2831 2830 2830 2830 2830 2830 2830 2830 2830 2830 2830 2831 2831 2832 2836 2840 2841 2842 2844 2846 2847 2849 2852 2854 2856 2859
2936 2933 2929 2926 2923 2919 2916 2912 2909 2906 2903 2899 2897 2894 2892 2890 2889 2887 2886 2884 2882 2880 2878 2876 2875 2873 2871 2869 2867 2865 2863 2862 2860 2858 2855 2853 2852 2850 2848 2846 2844 2842 2840 2838 2836 2834 2833 2831 2830 2829 2828 2827 2827 2826 2826 2825 2825 2824 2824 2824 2823 2822 2822 2822 2822 2822 2822 2823 2823 2823 2824 2823 2824 2827 2831 2832 2833 2836 2838 2838 2840 2842 2844 2846 2850
2930 2927 2924 2920 2917 2913 2909 2906 2903 2899 2896 2893 2891 2888 2886 2885 2883 2881 2880 2878 2877 2875 2873 2871 2870 2868 2866 2864 2862 2860 2858 2856 2855 2852 2850 2848 2846 2843 2841 2839 2837 2836 2834 2832 2830 2827 2826 2824 2823 2822 2821 2820 2819 2819 2818 2817 2817 2816 2817 2816 2815 2815 2815 2814 2814 2814 2815 2815 2816 2817 2816 2816 2816 2819 2822 2823 2824 2829 2830 2829 2830 2834 2836 2837 2840
2925 2922 2918 2915 2911 2907 2903 2900 2896 2893 2890 2887 2885 2883 2881 2879 2877 2876 2875 2873 2871 2869 2867 2866 2864 2862 2861 2859 2857 2855 2853 2851 2849 2847 2844 2842 2840 2837 2835 2832 2830 2829 2827 2825 2823 2821 2819 2818 2816 2815 2814 2813 2812 2811 2811 2810 2809 2808 2809 2809 2808 2807 2807 2807 2806 2807 2807 2807 2808 2810 2809 2809 2810 2812 2814 2815 2817 2820 2822 2820 2821 2826 2827 2828 2831
2919 2916 2912 2909 2905 2900 2897 2893 2890 2887 2884 2882 2879 2877 2875 2874 2872 2871 2869 2868 2866 2864 2862 2861 2859 2857 2855 2853 2851 2849 2848 2846 2844 2841 2839 2837 2834 2830 2828 2826 2824 2821 2819 2817 2816 2814 2812 2811 2810 2809 2807 2806 2805 2804 2803 2803 2802 2801 2801 2801 2801 2801 2800 2800 2800 2800 2800 2799 2801 2802 2801 2802 2805 2806 2806 2809 2810 2811 2812 2813 2815 2817 2817 2818 2823
2914 2910 2906 2902 2898 2894 2891 2887 2884 2881 2878 2876 2873 2871 2870 2868 2867 2865 2864 2862 2860 2858 2857 2855 2854 2852 2850 2848 2846 2844 2842 2841 2838 2836 2834 2831 2827 2824 2821 2818 2816 2813 2811 2809 2807 2806 2804 2802 2801 2801 2800 2799 2798 2797 2796 2796 2795 2795 2795 2794 2794 2794 2793 2793 2793 2794 2793 2792 2793 2795 2793 2794 2798 2800 2800 2802 2802 2802 2804 2806 2807 2809 2810 2811 2815
2908 2904 2900 2896 2892 2888 2885 2881 2878 2875 2872 2870 2868 2865 2864 2862 2861 2860 2858 2856 2855 2853 2852 2850 2848 2847 2844 2842 2840 2838 2837 2836 2833 2830 2828 2826 2822 2819 2815 2812 2809 2807 2805 2803 2800 2798 2796 2795 2793 2792 2792 2792 2791 2790 2790 2789 2789 2788 2788 2788 2788 2788 2788 2787 2786 2786 2786 2785 2785 2786 2786 2787 2790 2793 2794 2795 2795 2795 2796 2797 2799 2801 2804 2805 2807
2901 2898 2894 2890 2886 2883 2879 2876 2873 2870 2867 2864 2862 2859 2858 2856 2855 2854 2852 2850 2849 2847 2846 2844 2843 2841 2839 2836 2834 2832 2831 2830 2827 2824 2822 2820 2817 2813 2810 2806 2803 2801 2799 2797 2794 2792 2790 2788 2786 2785 2785 2785 2784 2783 2782 2782 2782 2781 2781 2781 2781 2781 2781 2781 2781 2779 2778 2777 2776 2777 2780 2781 2782 2786 2789 2789 2788 2789 2790 2791 2793 2795 2797 2798 2800
2896 2892 2888 2885 2881 2877 2874 2870 2867 2864 2861 2858 2856 2854 2852 2851 2849 2848 2846 2845 2843 2841 2840 2838 2837 2835 2833 2831 2828 2827 2826 2824 2821 2819 2817 2814 2811 2808 2804 2800 2798 2796 2794 2791 2789 2786 2784 2781 2779 2778 2778 2778 2778 2777 2776 2775 2775 2774 2774 2774 2774 2774 2774 2774 2774 2774 2773 2771 2770 2770 2774 2776 2776 2779 2783 2783 2782 2784 2785 2785 2787 2789 2789 2791 2792
2890 2886 2883 2879 2876 2872 2869 2865 2862 2859 2856 2853 2850 2849 2847 2845 2844 2842 2840 2839 2837 2835 2834 2832 2831 2829 2827 2825 2822 2820 2820 2818 2816 2813 2811 2808 2805 2801 2798 2795 2793 2790 2788 2785 2783 2780 2778 2775 2773 2772 2771 2771 2772 2771 2770 2769 2768 2767 2767 2767 2766 2767 2766 2767 2768 2768 2768 2767 2766 2766 2768 2770 2771 2772 2775 2777 2777 2778 2779 2780 2781 2782 2782 2782 2783
2884 2881 2877 2874 2870 2867 2863 2860 2856 2853 2850 2848 2845 2843 2841 2840 2838 2836 2834 2833 2831 2830 2828 2826 2825 2823 2821 2819 2816 2814 2814 2813 2810 2807 2805 2803 2799 2795 2792 2789 2787 2784 2782 2779 2777 2774 2772 2770 2768 2766 2765 2764 2765 2766 2765 2764 2762 2761 2760 2760 2760 2759 2759 2760 2762 2762 2763 2762 2762 2762 2763 2765 2766 2767 2769 2770 2771 2772 2774 2773 2774 2774 2774 2774 2775
2879 2875 2872 2869 2865 2861 2858 2854 2851 2848 2845 2843 2840 2838 2836 2834 2833 2831 2829 2827 2826 2824 2822 2820 2819 2817 2815 2813 2810 2808 2807 2807 2804 2801 2799 2797 2793 2789 2786 2783 2780 2778 2776 2773 2771 2769 2767 2765 2762 2760 2759 2758 2759 2760 2761 2759 2757 2755 2755 2754 2753 2753 2752 2754 2755 2756 2756 2757 2757 2758 2759 2760 2762 2763 2764 2765 2766 2768 2768 2766 2767 2768 2768 2767 2768
2873 2870 2867 2863 2859 2856 2852 2849 2846 2843 2841 2838 2835 2833 2831 2829 2827 2825 2823 2821 2820 2818 2816 2814 2813 2811 2809 2807 2804 2802 2801 2799 2797 2795 2793 2791 2787 2783 2780 2777 2774 2772 2770 2767 2764 2762 2761 2759 2757 2755 2753 2753 2754 2755 2756 2755 2753 2751 2750 2749 2748 2748 2747 2748 2747 2747 2748 2749 2750 2751 2751 2753 2754 2754 2756 2758 2760 2762 2761 2759 2761 2763 2762 2761 2761
2868 2865 2861 2858 2854 2851 2847 2844 2841 2838 2835 2833 2830 2828 2825 2823 2821 2819 2817 2815 2814 2812 2810 2808 2807 2805 2803 2801 2798 2796 2794 2792 2790 2788 2786 2785 2781 2777 2773 2770 2768 2766 2763 2760 2758 2756 2754 2753 2752 2750 2749 2749 2749 2750 2751 2750 2748 2747 2746 2745 2743 2742 2742 2742 2741 2740 2741 2741 2742 2743 2743 2744 2746 2746 2747 2749 2752 2754 2754 2753 2755 2756 2755 2755 2756
2863 2859 2856 2853 2849 2846 2842 2839 2836 2833 2830 2828 2825 2823 2820 2818 2816 2814 2812 2809 2807 2806 2804 2802 2800 2799 2797 2795 2792 2790 2787 2785 2784 2782 2780 2778 2775 2771 2767 2764 2762 2759 2757 2754 2751 2748 2748 2747 2746 2746 2745 2745 2744 2745 2745 2745 2744 2743 2742 2739 2737 2737 2737 2736 2735 2734 2734 2733 2734 2736 2737 2739 2740 2740 2741 2743 2744 2746 2747 2748 2749 2750 2750 2750 2751
2858 2854 2851 2848 2844 2841 2837 2834 2831 2828 2825 2822 2820 2818 2815 2813 2810 2808 2806 2803 2802 2800 2798 2796 2794 2792 2791 2789 2786 2784 2781 2778 2777 2775 2773 2772 2769 2765 2761 2758 2756 2753 2750 2747 2744 2741 2741 2741 2741 2740 2740 2739 2739 2739 2739 2739 2740 2738 2735 2733 2734 2734 2731 2728 2727 2728 2728 2728 2729 2730 2731 2733 2734 2735 2735 2736 2738 2740 2741 2742 2743 2744 2744 2744 2745
2853 2849 2846 2843 2839 2836 2832 2829 2826 2823 2821 2817 2815 2813 2811 2808 2805 2802 2800 2798 2796 2794 2792 2790 2787 2786 2785 2783 2780 2777 2774 2771 2770 2769 2767 2765 2763 2759 2755 2753 2751 2748 2744 2740 2738 2736 2735 2735 2735 2734 2734 2733 2733 2733 2733 2734 2734 2731 2729 2729 2730 2728 2723 2721 2721 2722 2721 2721 2722 2722 2723 2724 2726 2727 2728 2729 2731 2733 2734 2735 2737 2738 2738 2738 2739
2848 2844 2841 2838 2834 2831 2828 2825 2822 2819 2816 2813 2810 2808 2806 2803 2800 2797 2794 2792 2790 2788 2786 2784 2781 2780 2778 2777 2774 2771 2768 2766 2765 2763 2761 2759 2757 2754 2751 2748 2746 2743 2738 2735 2732 2730 2729 2729 2729 2729 2728 2728 2727 2727 2727 2727 2725 2724 2724 2724 2722 2719 2717 2716 2715 2715 2714 2715 2715 2715 2716 2717 2718 2719 2721 2722 2724 2726 2726 2728 2729 2731 2732 2733 2734
2843 2840 2836 2833 2830 2826 2823 2820 2817 2814 2811 2808 2806 2803 2801 2798 2796 2793 2789 2786 2784 2782 2780 2778 2775 2773 2772 2771 2769 2765 2762 2761 2760 2757 2755 2753 2751 2749 2746 2743 2741 2738 2733 2730 2728 2725 2724 2723 2723 2723 2723 2722 2721 2720 2720 2719 2717 2717 2717 2716 2713 2712 2712 2711 2710 2709 2709 2709 2709 2709 2710 2711 2712 2712 2714 2715 2716 2718 2719 2720 2722 2724 2726 2727 2728
2838 2835 2832 2828 2825 2822 2819 2816 2813 2810 2807 2804 2801 2799 2796 2793 2791 2788 2785 2782 2779 2776 2774 2772 2770 2767 2765 2764 2762 2759 2757 2756 2754 2752 2749 2746 2744 2743 2740 2738 2736 2733 2729 2726 2724 2721 2719 2718 2717 2717 2716 2715 2714 2713 2712 2712 2712 2711 2710 2709 2708 2707 2706 2705 2704 2704 2703 2703 2703 2703 2703 2705 2705 2706 2706 2708 2709 2711 2713 2715 2716 2718 2720 2721 2723
2833 2830 2827 2824 2820 2817 2814 2811 2808 2806 2803 2800 2797 2794 2791 2788 2786 2784 2780 2777 2774 2771 2769 2766 2764 2762 2760 2757 2755 2752 2751 2750 2748 2746 2743 2740 2738 2736 2734 2732 2730 2728 2725 2722 2719 2716 2714 2712 2711 2710 2709 2708 2707 2706 2706 2706 2706 2705 2704 2703 2702 2700 2699 2699 2698 2697 2697 2697 2697 2696 2696 2697 2698 2699 2700 2701 2702 2704 2706 2707 2709 2712 2714 2715 2716
2828 2825 2822 2819 2816 2812 2809 2807 2804 2801 2798 2796 2793 2790 2787 2783 2781 2779 2776 2772 2769 2767 2764 2761 2759 2756 2753 2750 2748 2746 2744 2743 2742 2740 2737 2734 2732 2730 2728 2727 2725 2722 2720 2717 2714 2711 2709 2707 2705 2704 2703 2703 2702 2701 2700 2700 2699 2698 2698 2697 2695 2694 2693 2692 2691 2691 2691 2691 2690 2690 2691 2691 2691 2692 2693 2694 2694 2696 2698 2700 2701 2704 2708 2709 2709
2824 2821 2817 2814 2811 2808 2804 2802 2799 2796 2794 2791 2788 2786 2783 2779 2777 2775 2772 2768 2764 2762 2759 2756 2754 2750 2747 2744 2742 2740 2738 2737 2736 2734 2731 2728 2726 2724 2722 2721 2720 2717 2714 2712 2710 2707 2705 2703 2701 2699 2698 2698 2697 2696 2695 2694 2693 2692 2692 2691 2690 2689 2688 2687 2686 2685 2685 2684 2684 2684 2685 2685 2686 2686 2686 2687 2688 2690 2692 2693 2695 2697 2701 2703 2703
2819 2816 2813 2809 2806 2803 2800 2797 2794 2791 2789 2786 2784 2782 2779 2775 2772 2770 2768 2764 2760 2757 2754 2751 2748 2745 2741 2738 2735 2732 2731 2729 2728 2725 2723 2721 2718 2715 2715 2714 2712 2709 2707 2705 2703 2701 2699 2698 2696 2694 2693 2692 2691 2691 2690 2689 2688 2687 2686 2685 2685 2684 2682 2681 2681 2680 2680 2679 2679 2679 2679 2680 2680 2680 2681 2681 2683 2685 2686 2687 2689 2691 2694 2696 2697
2815 2812 2808 2805 2802 2798 2796 2792 2789 2786 2783 2781 2779 2777 2775 2772 2767 2764 2763 2761 2757 2753 2749 2745 2742 2738 2734 2731 2728 2725 2723 2721 2719 2717 2715 2713 2710 2708 2707 2706 2704 2702 2699 2697 2696 2694 2692 2691 2689 2688 2687 2686 2685 2685 2684 2683 2683 2682 2681 2680 2679 2678 2677 2676 2676 2675 2675 2674 2674 2674 2674 2674 2675 2675 2676 2677 2678 2680 2681 2682 2684 2686 2688 2690 2692
2810 2807 2804 2801 2797 2794 2791 2788 2785 2782 2779 2776 2773 2771 2770 2769 2766 2761 2757 2755 2753 2750 2746 2742 2739 2735 2731 2727 2724 2721 2718 2716 2714 2712 2710 2707 2705 2702 2701 2699 2698 2696 2694 2692 2691 2689 2687 2685 2684 2683 2681 2680 2679 2679 2678 2678 2677 2676 2676 2675 2674 2673 2672 2671 2671 2670 2670 2670 2670 2669 2670 2670 2671 2672 2672 2673 2674 2676 2677 2678 2680 2681 2683 2685 2687
2805 2802 2799 2796 2793 2789 2786 2783 2780 2777 2774 2771 2768 2765 2763 2763 2762 2760 2756 2751 2748 2746 2743 2739 2736 2733 2729 2725 2722 2718 2715 2713 2710 2708 2706 2703 2700 2697 2694 2693 2692 2691 2689 2688 2686 2684 2682 2681 2679 2677 2676 2675 2674 2673 2673 2672 2672 2671 2670 2670 2669 2668 2667 2666 2666 2665 2665 2665 2665 2665 2666 2667 2667 2668 2669 2669 2670 2672 2673 2674 2675 2676 2678 2680 2681
2800 2797 2794 2791 2788 2785 2781 2778 2775 2772 2769 2766 2763 2760 2757 2755 2755 2755 2753 2750 2747 2743 2739 2736 2732 2729 2726 2723 2719 2715 2712 2709 2705 2703 2700 2698 2695 2690 2686 2686 2686 2685 2683 2682 2681 2679 2677 2675 2674 2672 2671 2669 2669 2668 2668 2667 2667 2666 2665 2665 2664 2664 2663 2662 2661 2661 2661 2661 2661 2662 2663 2663 2664 2665 2665 2666 2667 2667 2668 2669 2670 2671 2673 2675 2676
2796 2793 2789 2786 2783 2780 2777 2773 2770 2767 2764 2761 2758 2755 2753 2750 2747 2746 2745 2744 2743 2741 2737 2733 2728 2725 2722 2718 2715 2711 2708 2705 2702 2698 2696 2693 2689 2683 2680 2680 2680 2679 2677 2676 2674 2673 2671 2670 2668 2667 2665 2664 2663 2663 2662 2662 2662 2661 2660 2660 2660 2659 2659 2658 2657 2657 2657 2657 2658 2658 2659 2660 2661 2662 2662 2663 2663 2663 2664 2664 2665 2666 2668 2670 2673
2792 2788 2785 2781 2778 2775 2772 2769 2765 2762 2759 2756 2753 2750 2748 2745 2742 2739 2737 2735 2734 2734 2732 2729 2725 2720 2717 2713 2709 2706 2704 2701 2698 2695 2692 2689 2684 2679 2676 2675 2675 2674 2672 2670 2668 2666 2665 2664 2663 2662 2660 2659 2658 2658 2657 2657 2657 2656 2656 2655 2655 2655 2654 2654 2653 2653 2653 2654 2654 2655 2656 2657 2658 2658 2659 2660 2660 2660 2660 2660 2661 2662 2665 2667 2669
2787 2784 2781 2777 2773 2770 2767 2764 2761 2758 2755 2752 2749 2746 2743 2740 2737 2734 2732 2729 2727 2725 2723 2721 2719 2715 2712 2707 2704 2701 2698 2696 2693 2690 2687 2683 2678 2674 2672 2671 2670 2669 2668 2666 2663 2661 2660 2658 2657 2656 2655 2654 2653 2653 2652 2652 2652 2651 2651 2651 2650 2650 2650 2650 2649 2649 2649 2650 2651 2652 2653 2653 2654 2655 2656 2656 2656 2656 2656 2656 2657 2659 2662 2664 2666
2783 2780 2777 2773 2769 2766 2763 2760 2756 2753 2750 2747 2744 2741 2738 2735 2732 2729 2726 2724 2721 2718 2716 2714 2711 2708 2706 2702 2698 2695 2692 2690 2688 2685 2682 2678 2673 2669 2666 2664 2662 2662 2661 2660 2658 2656 2655 2654 2652 2651 2650 2649 2648 2648 2648 2647 2647 2647 2646 2646 2646 2646 2646 2646 2645 2645 2646 2646 2647 2648 2649 2650 2651 2652 2652 2653 2653 2653 2652 2653 2654 2657 2659 2661 2663
2779 2776 2772 2769 2765 2762 2759 2756 2752 2749 2745 2742 2739 2735 2733 2730 2727 2724 2721 2718 2716 2713 2710 2708 2705 2702 2699 2695 2692 2689 2686 2684 2682 2679 2676 2672 2668 2664 2661 2658 2656 2654 2653 2652 2651 2650 2649 2648 2647 2646 2645 2644 2643 2643 2643 2642 2642 2642 2642 2642 2642 2642 2642 2642 2642 2642 2642 2643 2644 2645 2646 2647 2648 2649 2649 2649 2650 2650 2649 2650 2651 2654 2656 2658 2660
2775 2772 2768 2764 2761 2757 2754 2751 2748 2744 2741 2737 2734 2731 2728 2725 2722 2719 2716 2713 2711 2708 2705 2702 2699 2696 2692 2689 2685 2682 2679 2677 2675 2673 2670 2667 2663 2659 2656 2653 2650 2648 2647 2646 2644 2643 2643 2642 2642 2640 2640 2639 2638 2637 2637 2638 2638 2637 2637 2637 2637 2638 2638 2638 2638 2638 2639 2639 2640 2641 2642 2644 2645 2645 2646 2646 2647 2647 2646 2647 2648 2651 2653 2656 2658
2771 2768 2764 2760 2757 2753 2750 2746 2743 2740 2736 2733 2730 2727 2723 2720 2717 2714 2711 2708 2705 2702 2700 2697 2694 2691 2687 2683 2679 2675 2672 2669 2667 2665 2662 2660 2657 2654 2651 2648 2645 2643 2641 2640 2638 2637 2636 2636 2635 2635 2634 2634 2633 2632 2632 2632 2633 2633 2633 2633 2633 2634 2634 2634 2634 2634 2635 2636 2637 2638 2639 2640 2642 2642 2643 2643 2644 2644 2644 2644 2645 2648 2651 2653 2655
2766 2763 2760 2756 2753 2749 2746 2742 2739 2735 2732 2729 2725 2722 2719 2715 2712 2709 2706 2703 2700 2697 2694 2691 2688 2685 2681 2678 2674 2669 2666 2662 2660 2657 2654 2652 2650 2647 2645 2642 2640 2637 2636 2634 2633 2632 2631 2630 2629 2629 2629 2628 2628 2627 2627 2627 2628 2628 2629 2629 2629 2630 2630 2630 2630 2631 2631 2632 2633 2634 2636 2637 2638 2640 2640 2641 2641 2641 2641 2642 2643 2645 2648 2651 2653
2762 2759 2756 2752 2748 2745 2742 2738 2735 2731 2728 2724 2721 2717 2714 2711 2708 2704 2701 2698 2695 2691 2688 2685 2682 2679 2676 2672 2668 2665 2661 2657 2654 2650 2648 2645 2642 2640 2638 2636 2633 2631 2630 2628 2627 2626 2625 2624 2624 2623 2623 2623 2622 2622 2622 2622 2623 2624 2624 2625 2625 2626 2626 2626 2626 2627 2628 2629 2629 2631 2632 2634 2635 2637 2637 2638 2638 2639 2639 2639 2641 2643 2645 2648 2651
2758 2754 2751 2748 2744 2741 2737 2734 2731 2728 2724 2721 2717 2713 2710 2706 2703 2700 2696 2693 2690 2686 2683 2680 2677 2673 2670 2667 2663 2659 2656 2652 2649 2645 2642 2639 2636 2634 2631 2629 2627 2625 2623 2622 2621 2619 2619 2618 2618 2617 2617 2617 2617 2617 2617 2618 2618 2619 2620 2620 2621 2622 2622 2622 2623 2623 2624 2625 2626 2627 2629 2631 2632 2634 2635 2635 2636 2637 2637 2637 2638 2640 2643 2645 2648
2754 2750 2747 2744 2740 2737 2733 2729 2726 2723 2720 2716 2713 2710 2706 2702 2699 2695 2692 2689 2685 2681 2678 2674 2671 2667 2664 2661 2657 2654 2650 2647 2643 2640 2636 2633 2630 2628 2625 2623 2621 2619 2617 2616 2614 2613 2612 2612 2612 2611 2612 2612 2612 2612 2612 2613 2613 2614 2615 2616 2617 2618 2618 2619 2619 2620 2620 2622 2623 2624 2626 2628 2629 2631 2632 2633 2634 2634 2635 2635 2636 2638 2640 2643 2645
2749 2746 2743 2739 2736 2732 2729 2725 2722 2718 2715 2712 2709 2706 2702 2698 2695 2691 2688 2684 2680 2677 2673 2669 2665 2662 2658 2655 2651 2648 2644 2640 2637 2633 2630 2627 2624 2621 2619 2617 2615 2613 2611 2609 2608 2607 2606 2605 2605 2605 2606 2606 2606 2607 2607 2608 2609 2610 2611 2612 2613 2614 2614 2615 2615 2616 2617 2618 2620 2621 2623 2625 2626 2628 2629 2631 2631 2632 2633 2633 2634 2635 2637 2640 2642
2745 2742 2739 2735 2732 2728 2725 2721 2718 2714 2711 2708 2704 2701 2698 2695 2691 2687 2683 2679 2675 2672 2668 2664 2660 2657 2653 2649 2646 2642 2638 2634 2630 2627 2623 2621 2618 2615 2613 2611 2608 2606 2605 2603 2601 2600 2599 2599 2599 2599 2600 2600 2601 2602 2602 2603 2604 2605 2607 2608 2609 2610 2611 2611 2612 2613 2614 2615 2617 2618 2620 2622 2623 2625 2627 2628 2629 2630 2631 2632 2632 2633 2635 2637 2640
2742 2738 2734 2731 2728 2724 2721 2717 2714 2710 2707 2704 2700 2697 2694 2690 2687 2683 2679 2675 2671 2667 2663 2659 2655 2651 2648 2644 2640 2636 2632 2628 2624 2620 2617 2614 2611 2609 2606 2604 2602 2600 2598 2597 2595 2594 2593 2593 2593 2593 2594 2594 2595 2596 2597 2598 2600 2601 2602 2604 2605 2606 2607 2608 2609 2610 2611 2612 2614 2615 2617 2619 2621 2622 2624 2626 2627 2628 2629 2630 2631 2632 2633 2635 2637
2738 2734 2731 2727 2723 2720 2717 2713 2710 2706 2703 2700 2697 2693 2689 2686 2682 2678 2674 2670 2666 2662 2658 2654 2650 2646 2642 2638 2634 2630 2626 2621 2618 2614 2611 2607 2605 2602 2600 2598 2595 2593 2592 2590 2588 2587 2587 2586 2586 2587 2588 2589 2590 2591 2593 2594 2595 2597 2598 2600 2601 2603 2604 2605 2606 2607 2608 2609 2611 2613 2614 2616 2618 2620 2622 2624 2625 2626 2627 2628 2629 2630 2631 2633 2635
2734 2731 2727 2723 2720 2716 2713 2709 2706 2703 2699 2696 2693 2689 2686 2682 2678 2674 2669 2665 2661 2657 2653 2648 2644 2640 2636 2632 2628 2623 2619 2615 2611 2608 2604 2601 2598 2595 2593 2591 2589 2587 2585 2584 2582 2581 2580 2580 2581 2581 2582 2584 2585 2587 2588 2589 2591 2593 2594 2596 2598 2599 2600 2601 2603 2604 2605 2606 2608 2610 2611 2613 2615 2617 2620 2621 2623 2624 2626 2627 2628 2629 2630 2631 2634
2730 2727 2723 2720 2716 2713 2709 2706 2702 2699 2695 2692 2688 2685 2681 2677 2673 2669 2665 2660 2656 2652 2647 2643 2638 2634 2630 2626 2621 2617 2613 2609 2605 2601 2598 2595 2592 2589 2587 2585 2583 2581 2579 2577 2576 2575 2575 2575 2575 2576 2577 2579 2580 2582 2583 2585 2587 2589 2591 2593 2594 2596 2597 2598 2600 2601 2602 2604 2605 2607 2609 2611 2613 2615 2617 2619 2621 2623 2624 2625 2627 2628 2629 2631 2633
2727 2723 2720 2716 2713 2709 2706 2702 2699 2696 2692 2688 2684 2680 2676 2672 2668 2664 2660 2655 2651 2646 2642 2637 2633 2629 2624 2620 2616 2611 2607 2603 2599 2595 2592 2588 2585 2583 2581 2579 2577 2575 2573 2572 2571 2570 2570 2570 2571 2571 2572 2574 2576 2578 2579 2581 2583 2585 2587 2589 2591 2593 2594 2595 2597 2598 2600 2601 2603 2605 2606 2608 2611 2613 2615 2617 2619 2621 2622 2624 2626 2627 2628 2630 2632